Weather History for Loreto, Mexico

Change the Weather History Date:

Monday, March 11, 2013

  Actual Average Record
Temperature  
Mean Temperature 72 °F -  
Max Temperature 79 °F 75 °F 84 °F (2004)
Min Temperature 65 °F 63 °F 55 °F (2014)
Cooling Degree Days 7    
Growing Degree Days 22 (Base 50)    
Moisture  
Dew Point 49 °F    
Average Humidity 40    
Maximum Humidity 73    
Minimum Humidity 11    
Precipitation  
Precipitation 0.00 in - - ()
Sea Level Pressure  
Sea Level Pressure 29.96 in    
Wind  
Wind Speed 13 mph ()    
Max Wind Speed 23 mph    
Max Gust Speed -    
Visibility 9.5 miles    
Events      
Averages and records for this station are not official NWS values.
T = Trace of Precipitation, MM = Missing Value Source: Averaged Metar Reports

Daily Weather History Graph

Daily Weather History Graph

Search for Another Location

Airport:

Trip Planner

Search our weather history database for the weather conditions in past years. The results will help you decide how hot, cold, wet, or windy it might be!

Date:

Astronomy

Mar. 11, 2013 Rise Set
Actual Time 6:38 AM MST 6:32 PM MST
Civil Twilight 6:15 AM MST 6:55 PM MST
Nautical Twilight 5:48 AM MST 7:22 PM MST
Astronomical Twilight 5:22 AM MST 7:48 PM MST
Moon 6:17 AM MST (3/11) 6:42 PM MST (3/11)
Length of Visible Light 12h 39m
Length of Day
11h 53m
Waning Crescent, 0% of the Moon is Illuminated
Mar 11
Waning Crescent
Mar 11
New
Mar 19
First Quarter
Mar 27
Full
Apr 2
Last Quarter

Hourly Weather History & Observations

Time (MST) Temp. Dew Point Humidity Pressure Visibility Wind Dir Wind Speed Gust Speed Precip Events Conditions
1:50 AM 65 °F 36 °F 23% 29.99 in 12 mi NNW 17.9 mph - -  
4:42 AM 66 °F 35 °F 20% 29.99 in 12 mi NNW 11.2 mph - -  
6:53 AM 68.0 °F 44.6 °F 43% 29.98 in 8.0 mi North 20.7 mph - N/A   Partly Cloudy
7:44 AM 66 °F 36 °F 22% 30.01 in 12 mi North 4.5 mph - -  
7:45 AM 68.0 °F 44.6 °F 43% 30.00 in 8.0 mi North 13.8 mph - N/A   Partly Cloudy
8:44 AM 69.8 °F 50.0 °F 49% 30.01 in 8.0 mi NNW 23.0 mph - N/A   Partly Cloudy
9:43 AM 73.4 °F 55.4 °F 53% 30.02 in 8.0 mi NNW 13.8 mph - N/A   Partly Cloudy
10:45 AM 79 °F 34 °F 11% 30.02 in 12 mi NNW 8.9 mph - -  
10:50 AM 73.4 °F 55.4 °F 53% 29.99 in 8.0 mi North 13.8 mph - N/A   Partly Cloudy
11:40 AM 75.2 °F 66.2 °F 73% 29.99 in 8.0 mi NNE 13.8 mph - N/A   Partly Cloudy
12:42 PM 75.2 °F 57.2 °F 53% 29.94 in 8.0 mi North 23.0 mph - N/A   Partly Cloudy
1:45 PM 78 °F 48 °F 24% 29.94 in 12 mi NNE 11.2 mph - -  
1:49 PM 75.2 °F 57.2 °F 53% 29.92 in 8.0 mi North 23.0 mph - N/A   Partly Cloudy
2:41 PM 75.2 °F 57.2 °F 53% 29.90 in 8.0 mi North 23.0 mph - N/A   Partly Cloudy
3:46 PM 75.2 °F 57.2 °F 53% 29.90 in 8.0 mi North 23.0 mph - N/A   Partly Cloudy
4:50 PM 77 °F 46 °F 22% 29.92 in 12 mi NE 8.9 mph - -  
5:15 PM 75.2 °F 57.2 °F 53% 29.89 in 8.0 mi North 23.0 mph - N/A   Clear
6:43 PM 73.4 °F 50.0 °F 44% 29.92 in 8.0 mi Calm Calm - N/A   Clear
7:45 PM 71 °F 36 °F 17% 29.95 in 12 mi NNW 4.5 mph - -